Lid_Strength_Index
1 1 0 0 0 -0 -0 -1 -1 -1 -1 -1 -1 -1 -1 -0 0 2 5 3 2 -2 0 3 3 4 3 4 5 6 8 10 10 9 8 7 7 7 6 7 6 6 7 7 6
1 1 0 0 0 0 -0 -0 -1 -1 -1 -1 -1 -0 -0 -0 3 5 1 -1 -3 -2 4 5 5 5 5 5 5 6 8 10 9 8 8 7 7 7 7 7 7 7 7 7 6
0 0 1 1 1 0 0 -0 -1 -1 -1 -1 -1 -1 -0 0 5 6 -1 -2 -2 1 4 4 4 5 7 6 6 7 9 9 9 8 7 8 7 7 8 8 7 7 8 8 8
0 1 1 1 1 1 0 -0 -0 -1 -1 -1 -1 -1 -0 3 8 5 -1 -2 -2 3 4 5 5 7 7 8 7 8 8 8 7 7 8 8 7 8 8 8 8 8 8 9 9
0 1 1 1 1 1 0 0 -0 -1 -1 -1 -1 -0 3 5 5 2 -1 -1 2 4 5 5 7 7 8 8 8 8 8 8 7 8 8 8 8 8 9 9 9 9 10 10 10
0 1 1 1 1 1 0 0 -0 -1 -1 -1 -1 0 5 7 2 1 2 4 4 4 5 5 6 6 8 8 8 8 8 8 8 8 9 9 9 9 10 9 10 10 10 10 10
0 1 1 1 0 0 1 0 0 -1 -1 -1 0 2 5 5 1 1 4 4 4 5 6 5 5 6 7 8 8 8 9 9 8 9 9 8 11 10 10 10 11 11 11 11 11
0 1 1 1 0 0 1 0 -0 -0 -0 0 0 4 5 5 1 3 3 4 4 4 5 5 5 6 7 7 9 10 10 10 9 9 10 9 11 11 10 10 11 11 11 12 12
1 1 0 0 0 0 0 0 1 0 0 0 2 5 6 3 4 3 4 5 5 6 6 6 6 8 8 10 10 11 11 12 11 10 10 10 11 11 11 11 12 12 12 12 12
1 1 1 1 1 1 0 -0 -0 1 1 1 3 6 5 7 6 6 5 5 7 7 7 7 8 9 10 10 13 11 13 13 12 11 10 11 11 12 12 12 12 13 13 13 13
1 1 1 1 1 1 1 2 4 5 4 6 6 6 7 7 6 7 6 7 7 7 9 9 10 12 10 9 10 11 12 12 12 12 12 11 10 11 12 13 13 13 13 13 13
2 2 1 1 1 1 1 4 4 4 7 4 5 6 6 7 9 8 6 8 9 10 10 11 12 9 11 11 12 13 13 13 12 12 12 12 12 10 13 13 13 13 13 13 13
2 2 2 2 2 2 3 4 5 4 7 6 5 6 6 8 9 9 8 9 11 12 12 12 11 11 12 13 14 13 13 13 13 13 13 13 13 13 15 14 14 13 13 13 13
2 2 2 2 4 3 4 2 2 3 10 10 8 7 9 8 10 8 8 9 11 12 12 12 11 13 13 14 13 14 12 13 14 14 15 14 15 14 14 15 15 14 13 13 13
2 2 2 2 4 5 4 1 1 4 18 10 10 8 9 8 9 11 9 10 11 12 12 13 13 13 13 13 12 13 13 13 13 14 15 15 16 13 15 16 15 14 13 12 12
2 2 2 3 3 3 4 4 5 12 18 12 11 11 11 11 12 11 11 10 10 12 12 11 12 11 11 13 12 13 13 14 14 14 17 14 15 14 14 13 13 13 13 13 13
1 2 3 2 5 4 4 6 13 17 10 13 13 12 11 13 14 13 13 13 13 14 14 12 13 12 12 13 13 13 14 17 18 18 18 16 16 13 11 13 12 13 13 12 13
1 2 2 2 3 4 4 9 17 13 11 13 14 13 13 13 13 14 14 14 11 12 13 14 15 13 12 11 13 14 13 15 21 19 17 17 18 14 13 13 13 12 12 12 13
1 2 2 2 3 4 7 15 15 12 10 13 14 14 14 14 13 14 13 12 11 12 13 14 14 13 13 13 12 15 16 12 18 20 17 15 15 13 15 15 14 13 13 13 13
2 3 4 1 2 5 10 13 12 9 9 10 13 12 14 14 14 14 14 12 12 11 9 12 15 14 15 13 13 13 12 16 15 20 20 17 16 14 15 14 14 14 14 13 13
3 7 3 1 2 7 13 12 10 8 9 11 12 12 13 14 13 15 13 12 11 12 10 12 13 15 15 15 14 15 15 15 14 15 18 18 16 12 12 12 14 13 13 12 12
4 9 2 1 9 9 12 10 9 9 8 9 10 10 13 14 15 14 14 12 11 11 13 11 13 16 16 14 14 12 13 14 15 18 17 17 15 13 12 12 12 12 12 12 12
7 6 4 3 12 12 9 10 9 9 9 9 10 10 9 13 16 14 13 12 12 11 12 12 14 17 16 15 15 15 14 13 12 14 16 17 15 14 14 13 12 12 12 12 12
6 10 7 7 6 10 11 11 11 8 9 9 9 10 11 12 12 13 13 13 12 11 10 10 13 14 17 13 13 16 14 14 14 15 15 15 13 15 13 13 13 13 12 12 12
6 9 7 12 10 10 9 10 12 12 9 8 11 10 11 14 12 13 11 14 13 11 11 11 15 13 12 13 13 13 14 15 15 14 15 13 14 13 12 12 12 11 11 12 12
8 8 9 9 9 9 10 11 12 11 11 12 12 10 10 13 12 14 12 13 12 13 13 13 15 13 15 14 15 16 14 14 14 14 13 13 14 11 11 11 11 12 12 12 12
7 8 8 10 11 11 11 10 11 10 11 10 10 10 12 10 10 11 11 12 13 14 14 15 15 16 17 14 17 19 16 14 14 13 13 15 12 13 13 12 11 11 12 12 11